DW8935 Weather Reports


time (UTC)temp
F
wind
direction
speed
knots
gust
knots
rain 1hr
in
rain 24hr
in
rain mn
in
humidity
%
barometer
mb
20260510151626 46 44 0.0 0.0 0.00 0.00 0.00 91 1032.1
20260510150025 46 44 0.0 0.0 0.00 0.00 0.00 91 1032.1
20260510144534 46 44 0.0 0.0 0.00 0.00 0.00 91 1032.2
20260510143026 47 44 0.0 0.0 0.00 0.00 0.00 91 1032.1
20260510141620 47 44 0.0 0.0 0.00 0.00 0.00 90 1032.2
20260510140019 47 44 0.0 0.0 0.00 0.00 0.00 90 1032.2
20260510134518 47 44 0.0 0.0 0.00 0.00 0.00 90 1032.3
20260510133021 47 44 0.0 0.0 0.00 0.00 0.00 89 1032.2
20260510131614 48 44 0.0 0.0 0.00 0.00 0.00 89 1032.2
20260510130017 48 44 0.0 0.0 0.00 0.00 0.00 89 1032.3
20260510124514 48 44 0.0 0.0 0.00 0.00 0.00 89 1032.4
20260510123012 49 44 0.0 0.0 0.00 0.00 0.00 88 1032.4
20260510121610 49 44 0.0 0.0 0.00 0.00 0.00 87 1032.4
20260510120008 50 44 0.0 0.0 0.00 0.00 0.00 87 1032.4
20260510114507 50 44 0.0 0.0 0.00 0.00 0.00 86 1032.3
20260510113004 51 44 0.0 0.0 0.00 0.00 0.00 86 1032.3
20260510111608 51 44 0.0 0.0 0.00 0.00 0.00 85 1032.1
20260510110002 51 44 0.0 0.0 0.00 0.00 0.00 84 1032.0
20260510104614 52 44 0.0 0.0 0.00 0.00 0.00 83 1032.0
20260510103058 52 44 0.0 0.0 0.00 0.00 0.00 83 1031.8
20260510101555 53 44 0.0 0.0 0.00 0.00 0.00 81 1031.9
20260510100058 54 44 0.0 0.0 0.00 0.00 0.00 81 1031.8
20260510094550 54 73 0.0 0.0 0.00 0.00 0.00 79 1031.7
20260510093050 55 73 0.0 0.0 0.00 0.00 0.00 79 1031.6
20260510091549 55 73 0.0 0.0 0.00 0.00 0.00 76 1031.5
20260510090051 56 73 0.0 0.0 0.00 0.00 0.00 74 1031.4
20260510084549 57 73 0.0 0.0 0.00 0.00 0.00 72 1031.3
20260510083048 58 73 0.0 0.0 0.00 0.00 0.00 71 1031.2
20260510081600 59 73 0.0 0.0 0.00 0.00 0.00 70 1031.1
20260510080047 60 73 0.0 0.0 0.00 0.00 0.00 69 1030.9
20260510074549 60 88 0.0 0.9 0.00 0.00 0.00 68 1030.8
20260510073047 61 80 0.0 0.0 0.00 0.00 0.00 67 1030.6
20260510071548 62 104 0.0 3.5 0.00 0.00 0.00 66 1030.5
20260510070048 62 94 0.0 2.6 0.00 0.00 0.00 65 1030.4
20260510064549 62 70 0.0 1.7 0.00 0.00 0.00 66 1030.3
20260510063047 62 77 0.9 3.5 0.00 0.00 0.00 65 1030.3
20260510061547 63 69 0.0 2.6 0.00 0.00 0.00 63 1030.2
20260510060052 63 114 0.0 1.7 0.00 0.00 0.00 63 1030.2
20260510054548 64 86 0.0 0.0 0.00 0.00 0.00 62 1030.2
20260510053045 66 80 0.0 5.2 0.00 0.00 0.00 60 1030.1
20260510051604 66 67 0.9 3.5 0.00 0.00 0.00 60 1030.0
20260510050042 65 117 0.0 0.0 0.00 0.00 0.00 60 1030.0
20260510044543 65 215 0.0 3.5 0.00 0.00 0.00 59 1030.0
20260510043059 65 103 0.0 0.0 0.00 0.00 0.00 58 1030.0
20260510041541 64 104 0.0 1.7 0.00 0.00 0.00 60 1030.2
20260510040039 64 109 0.0 2.6 0.00 0.00 0.00 60 1030.3
20260510034544 64 134 0.0 0.0 0.00 0.00 0.00 59 1030.4
20260510033041 64 175 0.0 4.3 0.00 0.00 0.00 57 1030.4
20260510031605 64 61 0.0 2.6 0.00 0.00 0.00 60 1030.4
20260510030037 63 227 0.0 4.3 0.00 0.00 0.00 61 1030.5
20260510024537 63 202 0.0 2.6 0.00 0.00 0.00 61 1030.7
20260510023044 63 283 0.9 2.6 0.00 0.00 0.00 62 1030.9
20260510021536 63 269 0.0 0.0 0.00 0.00 0.00 63 1031.1
20260510020030 62 84 0.0 0.0 0.00 0.00 0.00 64 1031.3
20260510014529 62 190 0.0 0.0 0.00 0.00 0.00 64 1031.6
20260510013028 62 171 0.0 0.0 0.00 0.00 0.00 65 1031.7
20260510011527 61 55 0.0 0.0 0.00 0.00 0.00 67 1031.8
20260510010029 61 55 0.0 0.0 0.00 0.00 0.00 67 1031.8
20260510004523 60 172 0.0 3.5 0.00 0.00 0.00 69 1031.8
20260510003023 60 211 0.9 3.5 0.00 0.00 0.00 70 1031.7
20260510001520 59 158 0.9 2.6 0.00 0.00 0.00 73 1031.7
20260510000017 59 204 0.0 0.0 0.00 0.00 0.00 75 1031.7
20260509234514 58 187 0.9 3.5 0.00 0.00 0.00 81 1031.7
20260509233012 58 233 0.0 0.9 0.00 0.00 0.00 85 1031.7
20260509231509 57 261 0.0 0.9 0.00 0.00 0.00 88 1031.7
20260509230009 57 310 0.0 0.0 0.00 0.00 0.00 89 1031.6
20260509224507 56 310 0.0 0.9 0.00 0.00 0.00 90 1031.6
20260509223006 56 310 0.0 0.0 0.00 0.00 0.00 90 1031.4
20260509221506 55 310 0.0 0.0 0.00 0.00 0.00 90 1031.1
20260509220005 55 310 0.0 1.7 0.00 0.00 0.00 90 1031.0
20260509214504 55 309 0.0 0.9 0.00 0.00 0.00 91 1030.9
20260509213002 55 314 0.0 0.9 0.00 0.00 0.00 91 1030.5
20260509211615 55 304 0.0 0.0 0.00 0.00 0.00 91 1030.3
20260509204604 55 275 0.0 0.0 0.00 0.00 0.00 91 1030.1
20260509203100 55 275 0.0 0.0 0.00 0.00 0.00 91 1030.0
20260509201556 55 275 0.0 0.0 0.00 0.00 0.00 90 1029.9
20260509200053 55 275 0.0 0.0 0.00 0.00 0.00 90 1029.8
20260509194553 56 275 0.0 0.0 0.00 0.00 0.00 90 1029.6
20260509193050 56 275 0.0 0.0 0.00 0.00 0.00 91 1029.5
20260509191549 56 275 0.0 0.0 0.00 0.00 0.00 91 1029.3
20260509190052 56 275 0.0 0.0 0.00 0.00 0.00 91 1029.2
20260509184548 56 275 0.0 0.0 0.00 0.00 0.00 91 1029.1
20260509183048 56 275 0.0 0.0 0.00 0.00 0.00 91 1028.9
20260509181603 56 275 0.0 1.7 0.00 0.00 0.00 91 1028.8
20260509180046 56 240 0.0 0.0 0.00 0.00 0.00 91 1028.8
20260509174551 56 240 0.0 0.0 0.00 0.00 0.00 91 1028.8
20260509173047 56 240 0.0 0.0 0.00 0.00 0.00 91 1028.7
20260509171548 56 240 0.0 0.0 0.00 0.00 0.00 91 1028.6
20260509170044 56 240 0.0 0.0 0.00 0.00 0.00 91 1028.8
20260509164543 56 240 0.0 0.0 0.00 0.00 0.00 91 1028.9
20260509163054 56 240 0.0 0.0 0.00 0.00 0.00 91 1028.9
20260509161542 56 241 0.0 0.0 0.00 0.00 0.00 91 1028.9
20260509160040 56 240 0.0 0.0 0.00 0.00 0.00 90 1029.0
20260509154540 57 241 0.0 0.0 0.00 0.00 0.00 90 1029.0
20260509153037 57 241 0.0 0.9 0.00 0.00 0.00 90 1029.1